Find Starlink 37056

NORAD ID: 68260 Int'l Des: 2026-054 Owner: SPXS Country: US Constellation: starlink operational
LEOCIRCULAR

Live Position

Loading 3D Globe...

About Starlink 37056

Description loading...

Upcoming Passes

Passes for default location (London). Set your location on the main map for personalized predictions.

Altitude History

Loading altitude history...

Two-Line Element Set

1 68260U 26054AE 26121.79901262 .00075831 00000-0 13577-2 0 9996
2 68260 53.1598 49.4513 0001722 109.4328 250.6867 15.49320547 7135
Epoch: May 1, 2026 • Age: 11 hours

Current Status

Altitude 423.8 km
Velocity 7.66 km/s
Sub-Earth Point 52.59°N, 166.38°W
Launch Date Mar 17, 2026
Age 0.1 years
Type internet

Technical Details

Classification Payload
Mass 575.00 kg
Dry Mass 530.00 kg
Total Mass 575.00 kg
Length 0.30 m
Diameter 4.10 m
Span 29.00 m
Shape Box + pan
Manufacturer SPXS
Bus Type Starlink V2MO
Phase Status In Orbit
Owner/State SPXS/US

Most Searched